Flag for Togo Weather past 2 weeks in Atakpamé, Togo

Now
82 °F

Passing clouds.


Feels Like: 92 °F
Forecast: 72 / 93 °F
Wind: 7 mph from Southwest

Location: Lome Airport

Current Time: Mar 27, 2015 at 12:42:34 AM

Latest Report: Mar 27, 2015 at 12:00 AM


Visibility: N/A

Pressure: 29.92 "Hg

Humidity: 89%

Dew point: 79 °F

Location of AtakpaméLocation

Historic Weather in Atakpamé — Graph

°F

Atakpamé temperature yesterday

Maximum temperature yesterday: 90 °F (at 12:00 PM)
Minimum temperature yesterday: 77 °F (at 3:00 AM)
Average temperature yesterday: 83 °F

Past Weeks' High & Low Weather Summary

 TemperatureHumidityPressure
High93 °F (Mar 15, 12:00 PM)100% (Mar 21, 10:00 PM)29.95 "Hg (Mar 21, 10:00 PM)
Low72 °F (Mar 25, 8:00 AM)49% (Mar 18, 11:00 AM)29.68 "Hg (Mar 15, 3:00 PM)
Average84 °F80%29.81 "Hg
* Reported Mar 11 11:00 PM — Mar 26 11:00 PM, Atakpamé, Weather by CustomWeather, © 2015

Note: Actual official high and low records may vary slightly from our data, if they occured in-between our weather recording intervals... More about our weather records

Advertising

Atakpamé weather history for previous 24 hours

 ConditionsComfort  
Time TempWeatherWind HumidityBarometerVisibility
11:00 PM
Thu, Mar 26
82 °FPassing clouds.9 mph89%29.95 "HgN/A
10:00 PM82 °FPassing clouds.7 mph89%29.92 "HgN/A
9:00 PM84 °FPassing clouds.8 mph84%29.89 "HgN/A
8:00 PM84 °FPassing clouds.8 mph79%29.89 "HgN/A
7:00 PM84 °FPassing clouds.10 mph79%29.86 "HgN/A
6:00 PM84 °FPassing clouds.13 mph79%29.86 "HgN/A
5:00 PM86 °FPassing clouds.14 mph75%29.83 "HgN/A
4:00 PM86 °FPassing clouds.14 mph75%29.80 "HgN/A
3:00 PM88 °FPassing clouds.13 mph75%29.83 "HgN/A
2:00 PM88 °FPassing clouds.9 mph70%29.86 "HgN/A
1:00 PM90 °FPassing clouds.9 mph67%29.89 "HgN/A
12:00 PM90 °FPassing clouds.5 mph67%29.92 "HgN/A
11:00 AM88 °FPassing clouds.2 mph62%29.92 "HgN/A
10:00 AM86 °FPassing clouds.5 mph75%29.95 "HgN/A
9:00 AM82 °FPassing clouds.5 mph89%29.95 "Hg5 mi
8:00 AM81 °FPassing clouds.3 mph94%29.95 "Hg5 mi
7:00 AM79 °FPassing clouds.No wind100%29.92 "Hg4 mi
6:00 AM77 °FPassing clouds.1 mph100%29.89 "Hg4 mi
5:00 AM77 °FPassing clouds.No wind100%29.86 "Hg5 mi
4:00 AM77 °FPassing clouds.1 mph100%29.86 "Hg5 mi
3:00 AM77 °FPassing clouds.No wind100%29.86 "Hg5 mi
2:00 AM79 °FPassing clouds.1 mph94%29.86 "Hg5 mi
1:00 AM79 °FPassing clouds.1 mph94%29.86 "Hg5 mi
12:00 AM79 °FPassing clouds.1 mph94%29.89 "Hg5 mi
Weather by CustomWeather, © 2015

See weather overviewHow to use our weather pages